Time,TemperatureF,DewpointF,PressureIn,WindDirection,WindDirectionDegrees,WindSpeedMPH,WindSpeedGustMPH,Humidity,HourlyPrecipIn,Conditions,Clouds,dailyrainin,SoftwareType,DateUTC
2013-05-09 00:01:00,38.3,26.1,30.23,North,0,12.0,17.0,61,0.00,,,0.00,meteohub,2013-05-09 05:01:00,
2013-05-09 00:06:00,38.3,26.1,30.24,North,0,12.0,16.0,61,0.00,,,0.00,meteohub,2013-05-09 05:06:00,
2013-05-09 00:11:00,37.9,25.7,30.23,North,0,14.0,17.0,61,0.00,,,0.00,meteohub,2013-05-09 05:11:00,
2013-05-09 00:16:00,37.8,25.9,30.23,NE,45,14.0,17.0,62,0.00,,,0.00,meteohub,2013-05-09 05:16:00,
2013-05-09 00:21:00,37.4,25.9,30.23,North,0,15.0,17.0,63,0.00,,,0.00,meteohub,2013-05-09 05:21:00,
2013-05-09 00:26:00,37.2,26.2,30.23,North,0,11.0,15.0,64,0.00,,,0.00,meteohub,2013-05-09 05:26:00,
2013-05-09 00:31:00,37.0,26.1,30.24,North,0,12.0,15.0,64,0.00,,,0.00,meteohub,2013-05-09 05:31:00,
2013-05-09 00:36:00,36.7,26.1,30.24,North,0,5.0,15.0,65,0.00,,,0.00,meteohub,2013-05-09 05:36:00,
2013-05-09 00:41:00,36.5,26.2,30.25,North,0,11.0,15.0,66,0.00,,,0.00,meteohub,2013-05-09 05:41:00,
2013-05-09 00:46:00,36.1,25.9,30.25,North,0,7.0,15.0,66,0.00,,,0.00,meteohub,2013-05-09 05:46:00,
2013-05-09 00:52:00,36.1,26.2,30.25,NNE,23,8.0,15.0,67,0.00,,,0.00,meteohub,2013-05-09 05:52:00,
2013-05-09 00:57:00,36.0,26.1,30.25,East,90,11.0,13.0,67,0.00,,,0.00,meteohub,2013-05-09 05:57:00,
2013-05-09 01:02:00,35.8,25.9,30.25,North,0,10.0,16.0,67,0.00,,,0.00,meteohub,2013-05-09 06:02:00,
2013-05-09 01:07:00,35.6,25.7,30.25,NNE,23,9.0,16.0,67,0.00,,,0.00,meteohub,2013-05-09 06:07:00,
2013-05-09 01:13:00,35.4,25.9,30.25,North,0,11.0,16.0,68,0.00,,,0.00,meteohub,2013-05-09 06:13:00,
2013-05-09 01:18:00,35.2,25.7,30.25,North,0,9.0,11.0,68,0.00,,,0.00,meteohub,2013-05-09 06:18:00,
2013-05-09 01:23:00,35.1,25.5,30.25,WSW,248,7.0,12.0,68,0.00,,,0.00,meteohub,2013-05-09 06:23:00,
2013-05-09 01:28:00,35.2,25.7,30.25,North,0,16.0,16.0,68,0.00,,,0.00,meteohub,2013-05-09 06:28:00,
2013-05-09 01:33:00,35.1,25.5,30.25,NNE,23,11.0,16.0,68,0.00,,,0.00,meteohub,2013-05-09 06:33:00,
2013-05-09 01:38:00,34.9,25.3,30.25,North,0,8.0,16.0,68,0.00,,,0.00,meteohub,2013-05-09 06:38:00,
2013-05-09 01:43:00,34.9,25.7,30.25,NE,45,15.0,16.0,69,0.00,,,0.00,meteohub,2013-05-09 06:43:00,
2013-05-09 01:48:00,34.7,25.5,30.25,North,0,11.0,15.0,69,0.00,,,0.00,meteohub,2013-05-09 06:48:00,
2013-05-09 01:54:00,34.5,25.7,30.25,NE,45,7.0,15.0,70,0.00,,,0.00,meteohub,2013-05-09 06:54:00,
2013-05-09 01:59:00,34.3,25.5,30.25,North,0,11.0,15.0,70,0.00,,,0.00,meteohub,2013-05-09 06:59:00,
2013-05-09 02:04:00,34.3,25.5,30.25,NNW,338,7.0,12.0,70,0.00,,,0.00,meteohub,2013-05-09 07:04:00,
2013-05-09 02:09:00,34.0,25.5,30.25,NNE,23,8.0,11.0,71,0.00,,,0.00,meteohub,2013-05-09 07:09:00,
2013-05-09 02:14:00,34.0,25.5,30.25,NE,45,7.0,11.0,71,0.00,,,0.00,meteohub,2013-05-09 07:14:00,
2013-05-09 02:19:00,33.8,25.3,30.26,North,0,8.0,9.0,71,0.00,,,0.00,meteohub,2013-05-09 07:19:00,
2013-05-09 02:24:00,33.6,25.2,30.25,North,0,8.0,10.0,71,0.00,,,0.00,meteohub,2013-05-09 07:24:00,
2013-05-09 02:29:00,33.6,25.2,30.25,North,0,8.0,11.0,71,0.00,,,0.00,meteohub,2013-05-09 07:29:00,
2013-05-09 02:34:00,33.6,25.2,30.25,North,0,8.0,13.0,71,0.00,,,0.00,meteohub,2013-05-09 07:34:00,
2013-05-09 02:39:00,33.4,25.3,30.25,North,0,10.0,13.0,72,0.00,,,0.00,meteohub,2013-05-09 07:39:00,
2013-05-09 02:44:00,33.4,25.3,30.26,North,0,8.0,13.0,72,0.00,,,0.00,meteohub,2013-05-09 07:44:00,
2013-05-09 02:49:00,33.3,25.5,30.25,North,0,8.0,13.0,73,0.00,,,0.00,meteohub,2013-05-09 07:49:00,
2013-05-09 02:54:00,33.1,25.3,30.26,NE,45,5.0,13.0,73,0.00,,,0.00,meteohub,2013-05-09 07:54:00,
2013-05-09 02:59:00,33.1,25.3,30.26,North,0,7.0,13.0,73,0.00,,,0.00,meteohub,2013-05-09 07:59:00,
2013-05-09 03:04:00,33.1,25.3,30.25,NW,315,8.0,11.0,73,0.00,,,0.00,meteohub,2013-05-09 08:04:00,
2013-05-09 03:10:00,32.9,25.5,30.26,North,0,10.0,10.0,74,0.00,,,0.00,meteohub,2013-05-09 08:10:00,
2013-05-09 03:15:00,32.7,25.7,30.26,North,0,8.0,8.0,75,0.00,,,0.00,meteohub,2013-05-09 08:15:00,
2013-05-09 03:20:00,32.5,25.5,30.26,North,0,11.0,11.0,75,0.00,,,0.00,meteohub,2013-05-09 08:20:00,
2013-05-09 03:25:00,32.5,25.5,30.26,NE,45,7.0,11.0,75,0.00,,,0.00,meteohub,2013-05-09 08:25:00,
2013-05-09 03:30:00,32.5,25.5,30.26,North,0,11.0,11.0,75,0.00,,,0.00,meteohub,2013-05-09 08:30:00,
2013-05-09 03:35:00,32.4,25.7,30.26,NNW,338,10.0,11.0,76,0.00,,,0.00,meteohub,2013-05-09 08:35:00,
2013-05-09 03:40:00,32.2,25.5,30.26,North,0,6.0,11.0,76,0.00,,,0.00,meteohub,2013-05-09 08:40:00,
2013-05-09 03:45:00,32.2,25.5,30.26,NNE,23,5.0,11.0,76,0.00,,,0.00,meteohub,2013-05-09 08:45:00,
2013-05-09 03:50:00,32.2,25.5,30.26,NNE,23,8.0,11.0,76,0.00,,,0.00,meteohub,2013-05-09 08:50:00,
2013-05-09 03:56:00,32.0,25.7,30.26,North,0,8.0,11.0,77,0.00,,,0.00,meteohub,2013-05-09 08:56:00,
2013-05-09 04:01:00,32.0,25.7,30.26,NE,45,9.0,9.0,77,0.00,,,0.00,meteohub,2013-05-09 09:01:00,
2013-05-09 04:06:00,32.0,25.7,30.26,NE,45,9.0,9.0,77,0.00,,,0.00,meteohub,2013-05-09 09:06:00,
2013-05-09 04:11:00,32.0,25.7,30.26,North,0,8.0,10.0,77,0.00,,,0.00,meteohub,2013-05-09 09:11:00,
2013-05-09 04:16:00,32.0,25.7,30.26,North,0,8.0,10.0,77,0.00,,,0.00,meteohub,2013-05-09 09:16:00,
2013-05-09 04:21:00,32.0,25.7,30.26,North,0,8.0,11.0,77,0.00,,,0.00,meteohub,2013-05-09 09:21:00,
2013-05-09 04:26:00,32.0,25.7,30.26,NNE,23,7.0,11.0,77,0.00,,,0.00,meteohub,2013-05-09 09:26:00,
2013-05-09 04:32:00,31.8,25.5,30.26,SW,225,9.0,10.0,77,0.00,,,0.00,meteohub,2013-05-09 09:32:00,
2013-05-09 04:37:00,31.6,25.3,30.26,NE,45,4.0,10.0,77,0.00,,,0.00,meteohub,2013-05-09 09:37:00,
2013-05-09 04:43:00,31.6,25.5,30.27,North,0,8.0,9.0,78,0.00,,,0.00,meteohub,2013-05-09 09:43:00,
2013-05-09 04:48:00,31.5,25.3,30.26,North,0,8.0,11.0,78,0.00,,,0.00,meteohub,2013-05-09 09:48:00,
2013-05-09 04:53:00,31.3,25.5,30.27,North,0,8.0,11.0,79,0.00,,,0.00,meteohub,2013-05-09 09:53:00,
2013-05-09 04:58:00,31.3,25.5,30.27,North,0,5.0,10.0,79,0.00,,,0.00,meteohub,2013-05-09 09:58:00,
2013-05-09 05:03:00,31.1,25.3,30.27,North,0,5.0,9.0,79,0.00,,,0.00,meteohub,2013-05-09 10:03:00,
2013-05-09 05:08:00,31.1,25.7,30.27,NE,45,4.0,9.0,80,0.00,,,0.00,meteohub,2013-05-09 10:08:00,
2013-05-09 05:13:00,31.1,25.7,30.27,NNE,23,5.0,10.0,80,0.00,,,0.00,meteohub,2013-05-09 10:13:00,
2013-05-09 05:18:00,30.9,25.5,30.27,NE,45,6.0,10.0,80,0.00,,,0.00,meteohub,2013-05-09 10:18:00,
2013-05-09 05:24:00,30.9,25.5,30.27,East,90,5.0,10.0,80,0.00,,,0.00,meteohub,2013-05-09 10:24:00,
2013-05-09 05:29:00,30.9,25.5,30.27,NE,45,8.0,10.0,80,0.00,,,0.00,meteohub,2013-05-09 10:29:00,
2013-05-09 05:34:00,30.9,25.5,30.27,NE,45,6.0,11.0,80,0.00,,,0.00,meteohub,2013-05-09 10:34:00,
2013-05-09 05:39:00,30.9,25.5,30.27,North,0,8.0,11.0,80,0.00,,,0.00,meteohub,2013-05-09 10:39:00,
2013-05-09 05:44:00,30.7,25.3,30.27,North,0,4.0,8.0,80,0.00,,,0.00,meteohub,2013-05-09 10:44:00,
2013-05-09 05:49:00,30.7,25.3,30.27,NNE,23,6.0,8.0,80,0.00,,,0.00,meteohub,2013-05-09 10:49:00,
2013-05-09 05:54:00,30.6,25.2,30.27,NE,45,8.0,11.0,80,0.00,,,0.00,meteohub,2013-05-09 10:54:00,
2013-05-09 05:59:00,30.6,25.2,30.27,NE,45,5.0,11.0,80,0.00,,,0.00,meteohub,2013-05-09 10:59:00,
2013-05-09 06:04:00,30.6,25.2,30.27,NW,315,5.0,11.0,80,0.00,,,0.00,meteohub,2013-05-09 11:04:00,
2013-05-09 06:09:00,30.7,25.3,30.28,NE,45,6.0,8.0,80,0.00,,,0.00,meteohub,2013-05-09 11:09:00,
2013-05-09 06:14:00,30.9,25.5,30.28,North,0,8.0,8.0,80,0.00,,,0.00,meteohub,2013-05-09 11:14:00,
2013-05-09 06:19:00,31.1,25.3,30.28,North,0,8.0,10.0,79,0.00,,,0.00,meteohub,2013-05-09 11:19:00,
2013-05-09 06:24:00,31.1,25.3,30.28,NE,45,6.0,10.0,79,0.00,,,0.00,meteohub,2013-05-09 11:24:00,
2013-05-09 06:29:00,31.3,25.5,30.28,NNE,23,6.0,10.0,79,0.00,,,0.00,meteohub,2013-05-09 11:29:00,
2013-05-09 06:35:00,31.5,25.7,30.29,NE,45,6.0,10.0,79,0.00,,,0.00,meteohub,2013-05-09 11:35:00,
2013-05-09 06:40:00,31.5,25.7,30.29,NE,45,6.0,10.0,79,0.00,,,0.00,meteohub,2013-05-09 11:40:00,
2013-05-09 06:45:00,31.5,25.7,30.29,NE,45,6.0,8.0,79,0.00,,,0.00,meteohub,2013-05-09 11:45:00,
2013-05-09 06:50:00,32.9,26.2,30.29,North,0,8.0,8.0,76,0.00,,,0.00,meteohub,2013-05-09 11:50:00,
2013-05-09 06:55:00,33.1,26.4,30.29,North,0,4.0,8.0,76,0.00,,,0.00,meteohub,2013-05-09 11:55:00,
2013-05-09 07:00:00,33.1,26.4,30.29,North,0,4.0,8.0,76,0.00,,,0.00,meteohub,2013-05-09 12:00:00,
2013-05-09 07:05:00,32.9,26.2,30.29,NE,45,8.0,8.0,76,0.00,,,0.00,meteohub,2013-05-09 12:05:00,
2013-05-09 07:10:00,32.9,26.4,30.29,North,0,8.0,8.0,77,0.00,,,0.00,meteohub,2013-05-09 12:10:00,
2013-05-09 07:15:00,32.9,26.4,30.30,North,0,8.0,8.0,77,0.00,,,0.00,meteohub,2013-05-09 12:15:00,
2013-05-09 07:28:00,74.7,48.7,29.82,South,180,3.0,8.0,40,0.00,,,0.00,meteohub,2013-05-09 12:28:00,
2013-05-09 07:54:00,38.3,27.5,30.30,NNW,338,6.0,-999.0,65,0.00,,,0.00,meteohub,2013-05-09 12:54:00,
2013-05-09 07:59:00,38.3,27.5,30.30,NNW,338,6.0,-999.0,65,0.00,,,0.00,meteohub,2013-05-09 12:59:00,
2013-05-09 08:05:00,39.0,27.9,30.30,North,0,5.0,6.0,64,0.00,,,0.00,meteohub,2013-05-09 13:05:00,
2013-05-09 08:10:00,39.0,27.9,30.30,North,0,5.0,8.0,64,0.00,,,0.00,meteohub,2013-05-09 13:10:00,
2013-05-09 08:15:00,39.9,27.5,30.30,NE,45,9.0,9.0,61,0.00,,,0.00,meteohub,2013-05-09 13:15:00,
2013-05-09 08:20:00,40.5,28.0,30.30,NE,45,7.0,9.0,61,0.00,,,0.00,meteohub,2013-05-09 13:20:00,
2013-05-09 08:25:00,41.0,28.2,30.30,NE,45,8.0,9.0,60,0.00,,,0.00,meteohub,2013-05-09 13:25:00,
2013-05-09 08:30:00,41.5,28.2,30.30,NNE,23,6.0,9.0,59,0.00,,,0.00,meteohub,2013-05-09 13:30:00,
2013-05-09 08:35:00,42.8,28.2,30.31,North,0,8.0,9.0,56,0.00,,,0.00,meteohub,2013-05-09 13:35:00,
2013-05-09 08:40:00,42.8,27.7,30.31,NE,45,7.0,9.0,55,0.00,,,0.00,meteohub,2013-05-09 13:40:00,
2013-05-09 08:45:00,42.8,27.7,30.31,NE,45,7.0,9.0,55,0.00,,,0.00,meteohub,2013-05-09 13:45:00,
2013-05-09 08:51:00,42.8,27.7,30.31,NE,45,7.0,8.0,55,0.00,,,0.00,meteohub,2013-05-09 13:51:00,
2013-05-09 08:59:00,44.8,27.7,30.30,NNE,23,5.0,8.0,51,0.00,,,0.00,meteohub,2013-05-09 13:59:00,
2013-05-09 09:04:00,44.8,27.7,30.30,NNE,23,5.0,7.0,51,0.00,,,0.00,meteohub,2013-05-09 14:04:00,
2013-05-09 09:09:00,45.5,27.0,30.30,North,0,6.0,6.0,48,0.00,,,0.00,meteohub,2013-05-09 14:09:00,
2013-05-09 09:14:00,45.5,27.0,30.30,North,0,6.0,7.0,48,0.00,,,0.00,meteohub,2013-05-09 14:14:00,
2013-05-09 09:19:00,46.4,24.6,30.30,NE,45,14.0,14.0,42,0.00,,,0.00,meteohub,2013-05-09 14:19:00,
2013-05-09 09:25:00,47.5,25.0,30.30,NE,45,12.0,14.0,41,0.00,,,0.00,meteohub,2013-05-09 14:25:00,
2013-05-09 09:30:00,47.1,24.1,30.30,East,90,9.0,14.0,40,0.00,,,0.00,meteohub,2013-05-09 14:30:00,
2013-05-09 09:35:00,48.0,23.0,30.30,NE,45,9.0,17.0,37,0.00,,,0.00,meteohub,2013-05-09 14:35:00,
2013-05-09 09:40:00,48.4,23.9,30.30,NE,45,12.0,17.0,38,0.00,,,0.00,meteohub,2013-05-09 14:40:00,
2013-05-09 09:45:00,48.6,23.5,30.30,NE,45,11.0,12.0,37,0.00,,,0.00,meteohub,2013-05-09 14:45:00,
2013-05-09 09:50:00,50.4,24.4,30.30,NE,45,4.0,12.0,36,0.00,,,0.00,meteohub,2013-05-09 14:50:00,
2013-05-09 09:55:00,50.0,22.6,30.30,NNE,23,9.0,15.0,34,0.00,,,0.00,meteohub,2013-05-09 14:55:00,
2013-05-09 10:00:00,49.8,21.9,30.30,East,90,13.0,15.0,33,0.00,,,0.00,meteohub,2013-05-09 15:00:00,
2013-05-09 10:05:00,50.5,22.5,30.30,SE,135,7.0,15.0,33,0.00,,,0.00,meteohub,2013-05-09 15:05:00,
2013-05-09 10:10:00,51.4,21.7,30.30,NE,45,8.0,13.0,31,0.00,,,0.00,meteohub,2013-05-09 15:10:00,
2013-05-09 10:15:00,50.5,21.7,30.30,NE,45,7.0,13.0,32,0.00,,,0.00,meteohub,2013-05-09 15:15:00,
2013-05-09 10:20:00,52.0,23.0,30.30,NE,45,5.0,17.0,32,0.00,,,0.00,meteohub,2013-05-09 15:20:00,
2013-05-09 10:25:00,51.4,21.0,30.30,NE,45,12.0,17.0,30,0.00,,,0.00,meteohub,2013-05-09 15:25:00,
2013-05-09 10:31:00,51.8,22.1,30.30,East,90,6.0,12.0,31,0.00,,,0.00,meteohub,2013-05-09 15:31:00,
2013-05-09 10:36:00,52.3,21.0,30.30,NE,45,11.0,15.0,29,0.00,,,0.00,meteohub,2013-05-09 15:36:00,
2013-05-09 10:41:00,52.5,21.2,30.30,North,0,14.0,15.0,29,0.00,,,0.00,meteohub,2013-05-09 15:41:00,
2013-05-09 10:46:00,53.4,20.3,30.30,North,0,10.0,15.0,27,0.00,,,0.00,meteohub,2013-05-09 15:46:00,
2013-05-09 10:51:00,52.5,17.8,30.30,East,90,10.0,14.0,25,0.00,,,0.00,meteohub,2013-05-09 15:51:00,
2013-05-09 10:56:00,52.3,19.4,30.30,NW,315,10.0,14.0,27,0.00,,,0.00,meteohub,2013-05-09 15:56:00,
2013-05-09 11:01:00,53.2,21.7,30.30,NE,45,4.0,13.0,29,0.00,,,0.00,meteohub,2013-05-09 16:01:00,
2013-05-09 11:06:00,54.0,18.9,30.30,NNE,23,11.0,11.0,25,0.00,,,0.00,meteohub,2013-05-09 16:06:00,
2013-05-09 11:11:00,53.2,18.3,30.30,NNE,23,12.0,12.0,25,0.00,,,0.00,meteohub,2013-05-09 16:11:00,
2013-05-09 11:16:00,53.2,18.3,30.30,NNE,23,12.0,12.0,25,0.00,,,0.00,meteohub,2013-05-09 16:16:00,
2013-05-09 11:21:00,54.0,19.8,30.30,NNW,338,8.0,12.0,26,0.00,,,0.00,meteohub,2013-05-09 16:21:00,
2013-05-09 11:26:00,54.7,19.6,30.30,NNE,23,4.0,12.0,25,0.00,,,0.00,meteohub,2013-05-09 16:26:00,
2013-05-09 11:31:00,54.3,17.2,30.30,NNE,23,9.0,12.0,23,0.00,,,0.00,meteohub,2013-05-09 16:31:00,
2013-05-09 11:36:00,54.0,18.0,30.30,NNE,23,7.0,11.0,24,0.00,,,0.00,meteohub,2013-05-09 16:36:00,
2013-05-09 11:42:00,54.5,18.5,30.30,NE,45,15.0,15.0,24,0.00,,,0.00,meteohub,2013-05-09 16:42:00,
2013-05-09 11:47:00,54.1,18.1,30.30,NNE,23,11.0,15.0,24,0.00,,,0.00,meteohub,2013-05-09 16:47:00,
2013-05-09 11:52:00,55.2,18.1,30.30,NE,45,7.0,15.0,23,0.00,,,0.00,meteohub,2013-05-09 16:52:00,
2013-05-09 11:57:00,55.4,18.1,30.30,ENE,68,5.0,15.0,23,0.00,,,0.00,meteohub,2013-05-09 16:57:00,
2013-05-09 12:02:00,55.9,19.6,30.30,NNE,23,12.0,12.0,24,0.00,,,0.00,meteohub,2013-05-09 17:02:00,
2013-05-09 12:07:00,55.2,19.0,30.29,NE,45,9.0,12.0,24,0.00,,,0.00,meteohub,2013-05-09 17:07:00,
2013-05-09 12:12:00,55.2,19.0,30.29,North,0,11.0,12.0,24,0.00,,,0.00,meteohub,2013-05-09 17:12:00,
2013-05-09 12:17:00,54.9,16.7,30.29,NNE,23,11.0,12.0,22,0.00,,,0.00,meteohub,2013-05-09 17:17:00,
2013-05-09 12:22:00,54.9,16.7,30.29,NNE,23,11.0,11.0,22,0.00,,,0.00,meteohub,2013-05-09 17:22:00,
2013-05-09 12:27:00,55.0,18.0,30.29,North,0,11.0,11.0,23,0.00,,,0.00,meteohub,2013-05-09 17:27:00,
2013-05-09 12:32:00,55.9,16.5,30.29,North,0,14.0,14.0,21,0.00,,,0.00,meteohub,2013-05-09 17:32:00,
2013-05-09 12:37:00,56.5,18.1,30.29,NNE,23,8.0,14.0,22,0.00,,,0.00,meteohub,2013-05-09 17:37:00,
2013-05-09 12:42:00,56.5,17.1,30.29,East,90,6.0,14.0,21,0.00,,,0.00,meteohub,2013-05-09 17:42:00,
2013-05-09 12:47:00,57.0,18.5,30.29,East,90,8.0,14.0,22,0.00,,,0.00,meteohub,2013-05-09 17:47:00,
2013-05-09 12:53:00,57.0,18.5,30.28,East,90,8.0,8.0,22,0.00,,,0.00,meteohub,2013-05-09 17:53:00,
2013-05-09 12:58:00,57.0,18.5,30.28,East,90,8.0,8.0,22,0.00,,,0.00,meteohub,2013-05-09 17:58:00,
2013-05-09 13:03:00,57.6,19.0,30.28,NE,45,11.0,11.0,22,0.00,,,0.00,meteohub,2013-05-09 18:03:00,
2013-05-09 13:08:00,57.6,19.0,30.28,NE,45,11.0,11.0,22,0.00,,,0.00,meteohub,2013-05-09 18:08:00,
2013-05-09 13:13:00,57.6,19.0,30.28,NE,45,11.0,11.0,22,0.00,,,0.00,meteohub,2013-05-09 18:13:00,
2013-05-09 13:25:00,56.3,18.0,30.27,North,0,10.0,-999.0,22,0.00,,,0.00,meteohub,2013-05-09 18:25:00,
2013-05-09 13:30:00,56.3,18.0,30.28,North,0,10.0,10.0,22,0.00,,,0.00,meteohub,2013-05-09 18:30:00,
2013-05-09 13:36:00,59.2,19.2,30.27,East,90,6.0,10.0,21,0.00,,,0.00,meteohub,2013-05-09 18:36:00,
2013-05-09 13:41:00,59.2,19.2,30.27,East,90,6.0,10.0,21,0.00,,,0.00,meteohub,2013-05-09 18:41:00,
2013-05-09 13:46:00,59.5,19.6,30.27,NE,45,5.0,10.0,21,0.00,,,0.00,meteohub,2013-05-09 18:46:00,
2013-05-09 13:51:00,59.5,19.6,30.27,NE,45,5.0,6.0,21,0.00,,,0.00,meteohub,2013-05-09 18:51:00,
2013-05-09 13:56:00,58.3,24.4,30.27,North,0,6.0,6.0,27,0.00,,,0.00,meteohub,2013-05-09 18:56:00,
2013-05-09 14:01:00,59.0,23.2,30.27,NE,45,10.0,10.0,25,0.00,,,0.00,meteohub,2013-05-09 19:01:00,
2013-05-09 14:06:00,59.0,23.2,30.27,NE,45,10.0,10.0,25,0.00,,,0.00,meteohub,2013-05-09 19:06:00,
2013-05-09 14:11:00,59.0,23.2,30.27,NE,45,10.0,10.0,25,0.00,,,0.00,meteohub,2013-05-09 19:11:00,
2013-05-09 14:16:00,59.0,24.1,30.26,East,90,8.0,11.0,26,0.00,,,0.00,meteohub,2013-05-09 19:16:00,
2013-05-09 14:21:00,59.5,25.5,30.26,NE,45,4.0,11.0,27,0.00,,,0.00,meteohub,2013-05-09 19:21:00,
2013-05-09 14:26:00,59.5,25.5,30.26,NE,45,4.0,11.0,27,0.00,,,0.00,meteohub,2013-05-09 19:26:00,
2013-05-09 14:31:00,59.0,24.1,30.26,NE,45,9.0,12.0,26,0.00,,,0.00,meteohub,2013-05-09 19:31:00,
2013-05-09 14:36:00,59.9,25.0,30.26,NE,45,7.0,12.0,26,0.00,,,0.00,meteohub,2013-05-09 19:36:00,
2013-05-09 14:41:00,59.9,25.0,30.25,NE,45,7.0,12.0,26,0.00,,,0.00,meteohub,2013-05-09 19:41:00,
2013-05-09 14:49:00,59.7,22.8,30.25,NE,45,12.0,12.0,24,0.00,,,0.00,meteohub,2013-05-09 19:49:00,
2013-05-09 14:55:00,59.7,22.8,30.25,NE,45,12.0,12.0,24,0.00,,,0.00,meteohub,2013-05-09 19:55:00,
2013-05-09 15:00:00,59.7,22.8,30.25,NE,45,12.0,12.0,24,0.00,,,0.00,meteohub,2013-05-09 20:00:00,
2013-05-09 15:06:00,60.6,24.6,30.24,NE,45,8.0,12.0,25,0.00,,,0.00,meteohub,2013-05-09 20:06:00,
2013-05-09 15:11:00,60.6,24.6,30.24,NE,45,8.0,12.0,25,0.00,,,0.00,meteohub,2013-05-09 20:11:00,
2013-05-09 15:16:00,61.0,22.8,30.24,NW,315,4.0,8.0,23,0.00,,,0.00,meteohub,2013-05-09 20:16:00,
2013-05-09 15:21:00,62.1,23.9,30.24,East,90,4.0,8.0,23,0.00,,,0.00,meteohub,2013-05-09 20:21:00,
2013-05-09 15:26:00,62.8,24.4,30.24,NE,45,3.0,8.0,23,0.00,,,0.00,meteohub,2013-05-09 20:26:00,
2013-05-09 15:32:00,61.0,22.8,30.24,NE,45,8.0,11.0,23,0.00,,,0.00,meteohub,2013-05-09 20:32:00,
2013-05-09 15:37:00,60.4,24.4,30.23,ESE,113,4.0,11.0,25,0.00,,,0.00,meteohub,2013-05-09 20:37:00,
2013-05-09 15:42:00,61.2,25.0,30.23,East,90,3.0,11.0,25,0.00,,,0.00,meteohub,2013-05-09 20:42:00,
2013-05-09 15:47:00,61.9,21.6,30.23,North,0,7.0,8.0,21,0.00,,,0.00,meteohub,2013-05-09 20:47:00,
2013-05-09 15:52:00,61.5,24.4,30.22,SE,135,5.0,7.0,24,0.00,,,0.00,meteohub,2013-05-09 20:52:00,
2013-05-09 15:57:00,61.5,23.4,30.22,NE,45,5.0,12.0,23,0.00,,,0.00,meteohub,2013-05-09 20:57:00,
2013-05-09 16:02:00,61.9,23.7,30.22,NNE,23,2.0,12.0,23,0.00,,,0.00,meteohub,2013-05-09 21:02:00,
2013-05-09 16:07:00,61.0,22.8,30.22,NE,45,12.0,12.0,23,0.00,,,0.00,meteohub,2013-05-09 21:07:00,
2013-05-09 16:12:00,61.2,24.1,30.22,North,0,11.0,12.0,24,0.00,,,0.00,meteohub,2013-05-09 21:12:00,
2013-05-09 16:17:00,61.0,23.9,30.22,NE,45,5.0,12.0,24,0.00,,,0.00,meteohub,2013-05-09 21:17:00,
2013-05-09 16:22:00,60.8,23.7,30.22,North,0,8.0,12.0,24,0.00,,,0.00,meteohub,2013-05-09 21:22:00,
2013-05-09 16:27:00,60.4,23.5,30.22,NE,45,15.0,15.0,24,0.00,,,0.00,meteohub,2013-05-09 21:27:00,
2013-05-09 16:32:00,60.3,23.4,30.21,North,0,8.0,15.0,24,0.00,,,0.00,meteohub,2013-05-09 21:32:00,
2013-05-09 16:38:00,60.3,23.4,30.21,NE,45,7.0,15.0,24,0.00,,,0.00,meteohub,2013-05-09 21:38:00,
2013-05-09 16:43:00,60.6,23.5,30.21,NE,45,11.0,15.0,24,0.00,,,0.00,meteohub,2013-05-09 21:43:00,
2013-05-09 16:48:00,59.9,23.9,30.21,North,0,2.0,14.0,25,0.00,,,0.00,meteohub,2013-05-09 21:48:00,
2013-05-09 16:53:00,61.0,25.0,30.20,NW,315,3.0,11.0,25,0.00,,,0.00,meteohub,2013-05-09 21:53:00,
2013-05-09 16:58:00,61.0,22.8,30.20,NE,45,4.0,11.0,23,0.00,,,0.00,meteohub,2013-05-09 21:58:00,
2013-05-09 17:03:00,61.5,23.4,30.20,NNE,23,5.0,12.0,23,0.00,,,0.00,meteohub,2013-05-09 22:03:00,
2013-05-09 17:08:00,61.2,24.1,30.20,North,0,8.0,12.0,24,0.00,,,0.00,meteohub,2013-05-09 22:08:00,
2013-05-09 17:13:00,61.3,24.3,30.20,East,90,8.0,10.0,24,0.00,,,0.00,meteohub,2013-05-09 22:13:00,
2013-05-09 17:18:00,61.3,24.3,30.20,East,90,8.0,10.0,24,0.00,,,0.00,meteohub,2013-05-09 22:18:00,
2013-05-09 17:23:00,60.4,23.5,30.19,North,0,8.0,10.0,24,0.00,,,0.00,meteohub,2013-05-09 22:23:00,
2013-05-09 17:28:00,61.7,22.5,30.19,North,0,8.0,8.0,22,0.00,,,0.00,meteohub,2013-05-09 22:28:00,
2013-05-09 17:33:00,62.4,23.0,30.19,North,0,4.0,8.0,22,0.00,,,0.00,meteohub,2013-05-09 22:33:00,
2013-05-09 17:38:00,62.4,23.0,30.19,NW,315,5.0,8.0,22,0.00,,,0.00,meteohub,2013-05-09 22:38:00,
2013-05-09 17:43:00,62.4,23.0,30.19,NW,315,5.0,8.0,22,0.00,,,0.00,meteohub,2013-05-09 22:43:00,
2013-05-09 17:48:00,61.2,24.1,30.19,NE,45,6.0,7.0,24,0.00,,,0.00,meteohub,2013-05-09 22:48:00,
2013-05-09 17:54:00,61.2,24.1,30.19,North,0,7.0,7.0,24,0.00,,,0.00,meteohub,2013-05-09 22:54:00,
2013-05-09 17:59:00,61.2,24.1,30.19,North,0,7.0,7.0,24,0.00,,,0.00,meteohub,2013-05-09 22:59:00,
2013-05-09 18:06:00,61.7,23.5,30.18,NE,45,6.0,8.0,23,0.00,,,0.00,meteohub,2013-05-09 23:06:00,
2013-05-09 18:11:00,61.7,23.5,30.19,NE,45,6.0,7.0,23,0.00,,,0.00,meteohub,2013-05-09 23:11:00,
2013-05-09 18:16:00,61.7,23.5,30.19,NE,45,6.0,6.0,23,0.00,,,0.00,meteohub,2013-05-09 23:16:00,
2013-05-09 18:21:00,60.8,22.8,30.18,East,90,6.0,6.0,23,0.00,,,0.00,meteohub,2013-05-09 23:21:00,
2013-05-09 18:26:00,60.8,22.8,30.19,East,90,6.0,6.0,23,0.00,,,0.00,meteohub,2013-05-09 23:26:00,
2013-05-09 18:32:00,60.8,22.8,30.18,East,90,6.0,6.0,23,0.00,,,0.00,meteohub,2013-05-09 23:32:00,
2013-05-09 18:37:00,60.8,22.8,30.18,North,0,6.0,8.0,23,0.00,,,0.00,meteohub,2013-05-09 23:37:00,
2013-05-09 18:42:00,60.8,22.8,30.18,NE,45,7.0,8.0,23,0.00,,,0.00,meteohub,2013-05-09 23:42:00,
2013-05-09 18:47:00,61.0,22.8,30.18,NE,45,8.0,9.0,23,0.00,,,0.00,meteohub,2013-05-09 23:47:00,
2013-05-09 18:52:00,61.0,22.8,30.18,NE,45,8.0,9.0,23,0.00,,,0.00,meteohub,2013-05-09 23:52:00,
2013-05-09 18:57:00,60.4,22.5,30.17,North,0,7.0,9.0,23,0.00,,,0.00,meteohub,2013-05-09 23:57:00,
2013-05-09 19:02:00,60.1,22.1,30.17,NE,45,11.0,11.0,23,0.00,,,0.00,meteohub,2013-05-10 00:02:00,
2013-05-09 19:07:00,59.9,21.9,30.18,North,0,8.0,11.0,23,0.00,,,0.00,meteohub,2013-05-10 00:07:00,
2013-05-09 19:13:00,60.3,22.3,30.17,NE,45,9.0,11.0,23,0.00,,,0.00,meteohub,2013-05-10 00:13:00,
2013-05-09 19:18:00,60.3,21.2,30.17,East,90,8.0,11.0,22,0.00,,,0.00,meteohub,2013-05-10 00:18:00,
2013-05-09 19:23:00,59.7,21.9,30.17,NE,45,8.0,9.0,23,0.00,,,0.00,meteohub,2013-05-10 00:23:00,
2013-05-09 19:28:00,59.7,21.9,30.17,North,0,6.0,9.0,23,0.00,,,0.00,meteohub,2013-05-10 00:28:00,
2013-05-09 19:33:00,59.9,21.9,30.17,North,0,8.0,8.0,23,0.00,,,0.00,meteohub,2013-05-10 00:33:00,
2013-05-09 19:38:00,59.2,21.4,30.17,North,0,8.0,8.0,23,0.00,,,0.00,meteohub,2013-05-10 00:38:00,
2013-05-09 19:43:00,58.6,21.9,30.17,NE,45,8.0,11.0,24,0.00,,,0.00,meteohub,2013-05-10 00:43:00,
2013-05-09 19:48:00,58.6,21.9,30.17,North,0,8.0,11.0,24,0.00,,,0.00,meteohub,2013-05-10 00:48:00,
2013-05-09 19:53:00,58.1,21.6,30.17,North,0,8.0,11.0,24,0.00,,,0.00,meteohub,2013-05-10 00:53:00,
2013-05-09 19:58:00,58.1,22.5,30.17,NW,315,5.0,11.0,25,0.00,,,0.00,meteohub,2013-05-10 00:58:00,
2013-05-09 20:03:00,57.6,21.0,30.17,North,0,9.0,9.0,24,0.00,,,0.00,meteohub,2013-05-10 01:03:00,
2013-05-09 20:08:00,57.0,21.6,30.17,North,0,8.0,9.0,25,0.00,,,0.00,meteohub,2013-05-10 01:08:00,
2013-05-09 20:13:00,56.7,21.2,30.17,NE,45,5.0,9.0,25,0.00,,,0.00,meteohub,2013-05-10 01:13:00,
2013-05-09 20:18:00,56.1,21.7,30.17,North,0,4.0,9.0,26,0.00,,,0.00,meteohub,2013-05-10 01:18:00,
2013-05-09 20:24:00,55.6,23.0,30.17,NW,315,5.0,9.0,28,0.00,,,0.00,meteohub,2013-05-10 01:24:00,
2013-05-09 20:29:00,55.0,22.5,30.17,NNE,23,8.0,9.0,28,0.00,,,0.00,meteohub,2013-05-10 01:29:00,
2013-05-09 20:34:00,54.7,23.9,30.17,North,0,5.0,8.0,30,0.00,,,0.00,meteohub,2013-05-10 01:34:00,
2013-05-09 20:39:00,54.3,23.5,30.17,NE,45,7.0,10.0,30,0.00,,,0.00,meteohub,2013-05-10 01:39:00,
2013-05-09 20:44:00,53.8,23.9,30.17,NE,45,5.0,10.0,31,0.00,,,0.00,meteohub,2013-05-10 01:44:00,
2013-05-09 20:49:00,53.4,24.3,30.17,North,0,6.0,8.0,32,0.00,,,0.00,meteohub,2013-05-10 01:49:00,
2013-05-09 20:54:00,52.9,24.6,30.17,North,0,6.0,8.0,33,0.00,,,0.00,meteohub,2013-05-10 01:54:00,
2013-05-09 20:59:00,52.5,25.0,30.17,North,0,6.0,8.0,34,0.00,,,0.00,meteohub,2013-05-10 01:59:00,
2013-05-09 21:04:00,52.2,24.6,30.17,North,0,5.0,10.0,34,0.00,,,0.00,meteohub,2013-05-10 02:04:00,
2013-05-09 21:09:00,51.6,24.8,30.17,NE,45,5.0,10.0,35,0.00,,,0.00,meteohub,2013-05-10 02:09:00,
2013-05-09 21:14:00,51.3,24.6,30.17,NE,45,4.0,10.0,35,0.00,,,0.00,meteohub,2013-05-10 02:14:00,
2013-05-09 21:19:00,51.1,24.4,30.18,North,0,4.0,6.0,35,0.00,,,0.00,meteohub,2013-05-10 02:19:00,
2013-05-09 21:25:00,50.5,24.6,30.17,West,270,3.0,6.0,36,0.00,,,0.00,meteohub,2013-05-10 02:25:00,
2013-05-09 21:30:00,50.2,25.0,30.17,North,0,4.0,5.0,37,0.00,,,0.00,meteohub,2013-05-10 02:30:00,
2013-05-09 21:35:00,49.8,24.6,30.17,North,0,6.0,6.0,37,0.00,,,0.00,meteohub,2013-05-10 02:35:00,
2013-05-09 21:40:00,49.6,24.4,30.18,SW,225,5.0,7.0,37,0.00,,,0.00,meteohub,2013-05-10 02:40:00,
2013-05-09 21:45:00,49.3,24.1,30.18,North,0,5.0,7.0,37,0.00,,,0.00,meteohub,2013-05-10 02:45:00,
2013-05-09 21:50:00,48.9,24.4,30.18,ENE,68,3.0,6.0,38,0.00,,,0.00,meteohub,2013-05-10 02:50:00,
2013-05-09 21:55:00,48.4,24.6,30.18,North,0,5.0,6.0,39,0.00,,,0.00,meteohub,2013-05-10 02:55:00,
2013-05-09 22:00:00,48.0,24.8,30.18,NE,45,6.0,6.0,40,0.00,,,0.00,meteohub,2013-05-10 03:00:00,
2013-05-09 22:05:00,47.7,23.9,30.18,North,0,4.0,6.0,39,0.00,,,0.00,meteohub,2013-05-10 03:05:00,
2013-05-09 22:10:00,47.5,23.2,30.18,North,0,4.0,6.0,38,0.00,,,0.00,meteohub,2013-05-10 03:10:00,
2013-05-09 22:15:00,47.3,23.0,30.18,NE,45,5.0,6.0,38,0.00,,,0.00,meteohub,2013-05-10 03:15:00,
2013-05-09 22:20:00,47.1,22.8,30.18,North,0,5.0,6.0,38,0.00,,,0.00,meteohub,2013-05-10 03:20:00,
2013-05-09 22:25:00,46.9,22.6,30.18,North,0,7.0,7.0,38,0.00,,,0.00,meteohub,2013-05-10 03:25:00,
2013-05-09 22:30:00,46.8,22.5,30.18,NNE,23,4.0,7.0,38,0.00,,,0.00,meteohub,2013-05-10 03:30:00,
2013-05-09 22:36:00,46.8,22.5,30.18,North,0,4.0,7.0,38,0.00,,,0.00,meteohub,2013-05-10 03:36:00,
2013-05-09 22:41:00,46.4,22.1,30.18,NNE,23,4.0,7.0,38,0.00,,,0.00,meteohub,2013-05-10 03:41:00,
2013-05-09 22:46:00,46.2,21.9,30.17,NE,45,4.0,6.0,38,0.00,,,0.00,meteohub,2013-05-10 03:46:00,
2013-05-09 22:51:00,46.0,22.5,30.18,North,0,3.0,6.0,39,0.00,,,0.00,meteohub,2013-05-10 03:51:00,
2013-05-09 22:56:00,45.9,22.3,30.17,NE,45,4.0,6.0,39,0.00,,,0.00,meteohub,2013-05-10 03:56:00,
2013-05-09 23:01:00,45.9,22.3,30.17,NNE,23,4.0,6.0,39,0.00,,,0.00,meteohub,2013-05-10 04:01:00,
2013-05-09 23:02:00,45.9,22.3,30.17,NNE,23,4.0,6.0,39,0.00,,,0.00,meteohub,2013-05-10 04:02:00,
2013-05-09 23:03:00,45.9,22.3,30.17,NNE,23,4.0,6.0,39,0.00,,,0.00,meteohub,2013-05-10 04:03:00,
2013-05-09 23:08:00,45.5,22.6,30.17,NE,45,4.0,6.0,40,0.00,,,0.00,meteohub,2013-05-10 04:08:00,
2013-05-09 23:13:00,45.3,22.5,30.17,North,0,3.0,4.0,40,0.00,,,0.00,meteohub,2013-05-10 04:13:00,
2013-05-09 23:18:00,45.1,22.3,30.17,North,0,4.0,7.0,40,0.00,,,0.00,meteohub,2013-05-10 04:18:00,
2013-05-09 23:23:00,45.0,22.1,30.17,NE,45,1.0,7.0,40,0.00,,,0.00,meteohub,2013-05-10 04:23:00,
2013-05-09 23:28:00,44.6,23.0,30.17,North,0,3.0,5.0,42,0.00,,,0.00,meteohub,2013-05-10 04:28:00,
2013-05-09 23:34:00,44.4,22.8,30.17,North,0,3.0,5.0,42,0.00,,,0.00,meteohub,2013-05-10 04:34:00,
2013-05-09 23:39:00,44.1,22.5,30.17,North,0,1.0,3.0,42,0.00,,,0.00,meteohub,2013-05-10 04:39:00,
2013-05-09 23:44:00,43.5,23.0,30.17,North,0,2.0,3.0,44,0.00,,,0.00,meteohub,2013-05-10 04:44:00,
2013-05-09 23:49:00,43.2,22.6,30.17,NE,45,1.0,3.0,44,0.00,,,0.00,meteohub,2013-05-10 04:49:00,
2013-05-09 23:54:00,43.0,23.2,30.17,East,90,2.0,2.0,45,0.00,,,0.00,meteohub,2013-05-10 04:54:00,
2013-05-09 23:59:00,42.6,23.4,30.17,NE,45,1.0,2.0,46,0.00,,,0.00,meteohub,2013-05-10 04:59:00,